Time,TemperatureF,DewpointF,PressureIn,WindDirection,WindDirectionDegrees,WindSpeedMPH,WindSpeedGustMPH,Humidity,HourlyPrecipIn,Conditions,Clouds,dailyrainin,SoftwareType,DateUTC
2013-06-16 00:01:00,47.9,-0.2,30.15,WNW,293,1.8,2.0,14,0.00,,,0.00,WUHU216HW,2013-06-16 07:01:00,
2013-06-16 00:06:00,47.9,-0.2,30.15,West,270,4.3,4.3,14,0.00,,,0.00,WUHU216HW,2013-06-16 07:06:00,
2013-06-16 00:11:00,47.7,-0.3,30.15,West,270,1.8,4.3,14,0.00,,,0.00,WUHU216HW,2013-06-16 07:11:00,
2013-06-16 00:16:00,47.7,-0.3,30.15,WNW,293,1.8,3.4,14,0.00,,,0.00,WUHU216HW,2013-06-16 07:16:00,
2013-06-16 00:21:00,47.5,-0.4,30.15,WNW,293,2.5,2.7,14,0.00,,,0.00,WUHU216HW,2013-06-16 07:21:00,
2013-06-16 00:26:00,47.5,-0.4,30.15,West,270,2.2,3.1,14,0.00,,,0.00,WUHU216HW,2013-06-16 07:26:00,
2013-06-16 00:31:00,47.3,-0.5,30.15,West,270,2.5,4.3,14,0.00,,,0.00,WUHU216HW,2013-06-16 07:31:00,
2013-06-16 00:36:00,47.2,-0.7,30.15,WSW,248,3.1,4.3,14,0.00,,,0.00,WUHU216HW,2013-06-16 07:36:00,
2013-06-16 00:41:00,46.8,-2.5,30.15,WSW,248,2.2,3.4,13,0.00,,,0.00,WUHU216HW,2013-06-16 07:41:00,
2013-06-16 00:46:00,46.6,-2.6,30.15,SW,225,3.1,3.4,13,0.00,,,0.00,WUHU216HW,2013-06-16 07:46:00,
2013-06-16 00:51:00,46.4,-4.2,30.14,West,270,2.9,3.8,12,0.00,,,0.00,WUHU216HW,2013-06-16 07:51:00,
2013-06-16 00:56:00,46.3,-4.4,30.15,West,270,2.7,3.8,12,0.00,,,0.00,WUHU216HW,2013-06-16 07:56:00,
2013-06-16 01:01:00,46.3,-4.4,30.15,West,270,3.4,3.4,12,0.00,,,0.00,WUHU216HW,2013-06-16 08:01:00,
2013-06-16 01:06:00,46.1,-4.5,30.15,West,270,3.4,3.6,12,0.00,,,0.00,WUHU216HW,2013-06-16 08:06:00,
2013-06-16 01:11:00,45.9,-4.7,30.14,West,270,3.4,3.8,12,0.00,,,0.00,WUHU216HW,2013-06-16 08:11:00,
2013-06-16 01:16:00,45.9,-4.7,30.14,West,270,3.8,4.0,12,0.00,,,0.00,WUHU216HW,2013-06-16 08:16:00,
2013-06-16 01:21:00,45.7,-3.3,30.14,West,270,3.6,4.0,13,0.00,,,0.00,WUHU216HW,2013-06-16 08:21:00,
2013-06-16 01:26:00,45.7,-4.9,30.14,West,270,1.8,4.0,12,0.00,,,0.00,WUHU216HW,2013-06-16 08:26:00,
2013-06-16 01:31:00,45.7,-4.9,30.14,NW,315,1.1,3.6,12,0.00,,,0.00,WUHU216HW,2013-06-16 08:31:00,
2013-06-16 01:36:00,46.1,-3.1,30.14,WNW,293,1.3,1.8,13,0.00,,,0.00,WUHU216HW,2013-06-16 08:36:00,
2013-06-16 01:41:00,46.4,-2.8,30.14,West,270,1.8,2.0,13,0.00,,,0.00,WUHU216HW,2013-06-16 08:41:00,
2013-06-16 01:46:00,46.6,-4.1,30.14,West,270,2.0,2.2,12,0.00,,,0.00,WUHU216HW,2013-06-16 08:46:00,
2013-06-16 01:51:00,46.8,-4.0,30.14,West,270,2.2,2.7,12,0.00,,,0.00,WUHU216HW,2013-06-16 08:51:00,
2013-06-16 01:56:00,47.0,-0.9,30.14,West,270,2.7,3.4,14,0.00,,,0.00,WUHU216HW,2013-06-16 08:56:00,
2013-06-16 02:01:00,47.0,-2.3,30.14,West,270,2.2,3.6,13,0.00,,,0.00,WUHU216HW,2013-06-16 09:01:00,
2013-06-16 02:06:00,46.8,-1.0,30.14,WSW,248,2.2,3.6,14,0.00,,,0.00,WUHU216HW,2013-06-16 09:06:00,
2013-06-16 02:11:00,46.8,-1.0,30.14,West,270,1.6,3.4,14,0.00,,,0.00,WUHU216HW,2013-06-16 09:11:00,
2013-06-16 02:16:00,46.8,-1.0,30.14,WNW,293,1.8,2.5,14,0.00,,,0.00,WUHU216HW,2013-06-16 09:16:00,
2013-06-16 02:21:00,46.8,-1.0,30.14,West,270,3.1,3.6,14,0.00,,,0.00,WUHU216HW,2013-06-16 09:21:00,
2013-06-16 02:26:00,46.6,-1.2,30.13,West,270,2.9,4.5,14,0.00,,,0.00,WUHU216HW,2013-06-16 09:26:00,
2013-06-16 02:31:00,46.6,-1.2,30.13,WSW,248,1.8,4.5,14,0.00,,,0.00,WUHU216HW,2013-06-16 09:31:00,
2013-06-16 02:36:00,46.6,-1.2,30.14,WNW,293,1.1,2.9,14,0.00,,,0.00,WUHU216HW,2013-06-16 09:36:00,
2013-06-16 02:41:00,46.6,-1.2,30.13,WNW,293,0.7,2.7,14,0.00,,,0.00,WUHU216HW,2013-06-16 09:41:00,
2013-06-16 02:46:00,46.6,-1.2,30.14,WNW,293,1.3,2.7,14,0.00,,,0.00,WUHU216HW,2013-06-16 09:46:00,
2013-06-16 02:51:00,46.6,-1.2,30.13,NNW,338,0.9,2.0,14,0.00,,,0.00,WUHU216HW,2013-06-16 09:51:00,
2013-06-16 02:56:00,46.6,-1.2,30.13,NNW,338,0.0,1.3,14,0.00,,,0.00,WUHU216HW,2013-06-16 09:56:00,
2013-06-16 03:01:00,46.6,-1.2,30.13,NW,315,0.2,1.1,14,0.00,,,0.00,WUHU216HW,2013-06-16 10:01:00,
2013-06-16 03:06:00,46.4,-1.2,30.13,North,0,0.0,0.7,14,0.00,,,0.00,WUHU216HW,2013-06-16 10:06:00,
2013-06-16 03:11:00,46.4,-1.2,30.14,North,0,0.9,1.1,14,0.00,,,0.00,WUHU216HW,2013-06-16 10:11:00,
2013-06-16 03:16:00,46.3,-1.4,30.13,North,0,0.2,1.1,14,0.00,,,0.00,WUHU216HW,2013-06-16 10:16:00,
2013-06-16 03:21:00,46.1,-1.6,30.14,NNW,338,0.0,0.9,14,0.00,,,0.00,WUHU216HW,2013-06-16 10:21:00,
2013-06-16 03:26:00,45.7,-1.9,30.14,NNW,338,0.0,0.9,14,0.00,,,0.00,WUHU216HW,2013-06-16 10:26:00,
2013-06-16 03:31:00,45.5,-2.0,30.14,NNW,338,0.0,0.9,14,0.00,,,0.00,WUHU216HW,2013-06-16 10:31:00,
2013-06-16 03:36:00,45.2,-2.3,30.14,NNW,338,0.0,0.0,14,0.00,,,0.00,WUHU216HW,2013-06-16 10:36:00,
2013-06-16 03:41:00,45.0,-2.4,30.14,NNW,338,0.2,0.7,14,0.00,,,0.00,WUHU216HW,2013-06-16 10:41:00,
2013-06-16 03:46:00,44.6,-2.7,30.14,NW,315,0.7,1.8,14,0.00,,,0.00,WUHU216HW,2013-06-16 10:46:00,
2013-06-16 03:51:00,44.5,-2.9,30.14,North,0,0.4,1.8,14,0.00,,,0.00,WUHU216HW,2013-06-16 10:51:00,
2013-06-16 03:56:00,44.3,-3.1,30.14,NW,315,1.6,1.6,14,0.00,,,0.00,WUHU216HW,2013-06-16 10:56:00,
2013-06-16 04:01:00,44.1,-1.7,30.14,West,270,0.4,1.6,15,0.00,,,0.00,WUHU216HW,2013-06-16 11:01:00,
2013-06-16 04:06:00,43.9,-1.9,30.14,WNW,293,0.7,1.6,15,0.00,,,0.00,WUHU216HW,2013-06-16 11:06:00,
2013-06-16 04:11:00,43.9,-1.9,30.15,WSW,248,1.6,1.6,15,0.00,,,0.00,WUHU216HW,2013-06-16 11:11:00,
2013-06-16 04:16:00,43.9,-1.9,30.15,WSW,248,1.8,1.8,15,0.00,,,0.00,WUHU216HW,2013-06-16 11:16:00,
2013-06-16 04:21:00,43.7,-2.0,30.14,WSW,248,1.3,1.8,15,0.00,,,0.00,WUHU216HW,2013-06-16 11:21:00,
2013-06-16 04:26:00,43.7,-2.0,30.14,WSW,248,0.4,1.8,15,0.00,,,0.00,WUHU216HW,2013-06-16 11:26:00,
2013-06-16 04:31:00,43.6,-2.1,30.15,WSW,248,0.4,1.8,15,0.00,,,0.00,WUHU216HW,2013-06-16 11:31:00,
2013-06-16 04:36:00,43.6,-2.1,30.14,WSW,248,1.1,1.3,15,0.00,,,0.00,WUHU216HW,2013-06-16 11:36:00,
2013-06-16 04:41:00,43.2,-2.5,30.15,WSW,248,0.0,1.3,15,0.00,,,0.00,WUHU216HW,2013-06-16 11:41:00,
2013-06-16 04:46:00,43.2,-2.5,30.14,WNW,293,0.4,1.3,15,0.00,,,0.00,WUHU216HW,2013-06-16 11:46:00,
2013-06-16 04:51:00,43.0,-2.6,30.14,West,270,0.9,1.1,15,0.00,,,0.00,WUHU216HW,2013-06-16 11:51:00,
2013-06-16 04:56:00,42.8,-2.8,30.14,West,270,1.6,1.8,15,0.00,,,0.00,WUHU216HW,2013-06-16 11:56:00,
2013-06-16 05:01:00,42.7,-3.0,30.15,West,270,1.3,1.8,15,0.00,,,0.00,WUHU216HW,2013-06-16 12:01:00,
2013-06-16 05:06:00,42.8,-2.8,30.15,NW,315,0.0,1.6,15,0.00,,,0.00,WUHU216HW,2013-06-16 12:06:00,
2013-06-16 05:11:00,42.8,-2.8,30.15,WNW,293,1.1,1.3,15,0.00,,,0.00,WUHU216HW,2013-06-16 12:11:00,
2013-06-16 05:16:00,42.8,-2.8,30.15,NW,315,0.4,1.6,15,0.00,,,0.00,WUHU216HW,2013-06-16 12:16:00,
2013-06-16 05:21:00,42.7,-4.4,30.15,WNW,293,0.0,1.6,14,0.00,,,0.00,WUHU216HW,2013-06-16 12:21:00,
2013-06-16 05:26:00,42.7,-4.4,30.15,West,270,1.1,1.3,14,0.00,,,0.00,WUHU216HW,2013-06-16 12:26:00,
2013-06-16 05:31:00,42.7,-4.4,30.15,WSW,248,1.1,1.3,14,0.00,,,0.00,WUHU216HW,2013-06-16 12:31:00,
2013-06-16 05:36:00,42.7,-4.4,30.15,West,270,1.6,1.8,14,0.00,,,0.00,WUHU216HW,2013-06-16 12:36:00,
2013-06-16 05:41:00,42.7,-4.4,30.15,WSW,248,1.6,2.2,14,0.00,,,0.00,WUHU216HW,2013-06-16 12:41:00,
2013-06-16 05:46:00,42.5,-4.5,30.16,WSW,248,1.8,2.2,14,0.00,,,0.00,WUHU216HW,2013-06-16 12:46:00,
2013-06-16 05:51:00,42.5,-4.5,30.16,West,270,1.8,2.2,14,0.00,,,0.00,WUHU216HW,2013-06-16 12:51:00,
2013-06-16 05:56:00,42.3,-4.7,30.16,WNW,293,1.3,2.2,14,0.00,,,0.00,WUHU216HW,2013-06-16 12:56:00,
2013-06-16 06:01:00,42.5,-4.5,30.16,West,270,2.0,2.5,14,0.00,,,0.00,WUHU216HW,2013-06-16 13:01:00,
2013-06-16 06:06:00,42.7,-4.4,30.16,West,270,1.8,2.5,14,0.00,,,0.00,WUHU216HW,2013-06-16 13:06:00,
2013-06-16 06:11:00,42.8,-4.2,30.16,WNW,293,0.9,2.5,14,0.00,,,0.00,WUHU216HW,2013-06-16 13:11:00,
2013-06-16 06:16:00,43.4,-3.8,30.16,West,270,1.6,1.8,14,0.00,,,0.00,WUHU216HW,2013-06-16 13:16:00,
2013-06-16 06:21:00,43.7,-3.5,30.16,West,270,1.8,2.2,14,0.00,,,0.00,WUHU216HW,2013-06-16 13:21:00,
2013-06-16 06:26:00,44.3,-1.5,30.16,West,270,0.4,2.2,15,0.00,,,0.00,WUHU216HW,2013-06-16 13:26:00,
2013-06-16 06:31:00,45.2,-0.8,30.16,NW,315,0.0,2.2,15,0.00,,,0.00,WUHU216HW,2013-06-16 13:31:00,
2013-06-16 06:36:00,46.4,0.2,30.16,North,0,0.4,0.9,15,0.00,,,0.00,WUHU216HW,2013-06-16 13:36:00,
2013-06-16 06:41:00,47.9,2.8,30.16,WNW,293,0.7,0.9,16,0.00,,,0.00,WUHU216HW,2013-06-16 13:41:00,
2013-06-16 06:46:00,49.7,4.3,30.16,WNW,293,0.4,1.3,16,0.00,,,0.00,WUHU216HW,2013-06-16 13:46:00,
2013-06-16 06:51:00,51.3,5.6,30.16,West,270,2.5,2.5,16,0.00,,,0.00,WUHU216HW,2013-06-16 13:51:00,
2013-06-16 06:56:00,52.9,5.4,30.16,WNW,293,1.1,2.5,15,0.00,,,0.00,WUHU216HW,2013-06-16 13:56:00,
2013-06-16 07:01:00,54.2,4.9,30.16,WNW,293,1.1,1.8,14,0.00,,,0.00,WUHU216HW,2013-06-16 14:01:00,
2013-06-16 07:06:00,55.3,7.3,30.17,NNW,338,1.1,2.5,15,0.00,,,0.00,WUHU216HW,2013-06-16 14:06:00,
2013-06-16 07:11:00,56.3,8.1,30.17,NW,315,0.9,4.0,15,0.00,,,0.00,WUHU216HW,2013-06-16 14:11:00,
2013-06-16 07:16:00,57.2,5.8,30.17,WNW,293,1.8,4.0,13,0.00,,,0.00,WUHU216HW,2013-06-16 14:16:00,
2013-06-16 07:21:00,57.8,6.1,30.17,WNW,293,0.9,2.7,13,0.00,,,0.00,WUHU216HW,2013-06-16 14:21:00,
2013-06-16 07:26:00,58.5,5.2,30.17,West,270,1.8,4.0,12,0.00,,,0.00,WUHU216HW,2013-06-16 14:26:00,
2013-06-16 07:31:00,59.0,5.6,30.17,NW,315,2.5,4.0,12,0.00,,,0.00,WUHU216HW,2013-06-16 14:31:00,
2013-06-16 07:36:00,59.6,6.0,30.17,NW,315,2.0,3.6,12,0.00,,,0.00,WUHU216HW,2013-06-16 14:36:00,
2013-06-16 07:41:00,60.1,5.0,30.17,North,0,0.4,3.1,11,0.00,,,0.00,WUHU216HW,2013-06-16 14:41:00,
2013-06-16 07:46:00,60.7,5.4,30.17,WNW,293,1.8,3.4,11,0.00,,,0.00,WUHU216HW,2013-06-16 14:46:00,
2013-06-16 07:51:00,61.2,5.9,30.18,NNE,23,2.5,3.6,11,0.00,,,0.00,WUHU216HW,2013-06-16 14:51:00,
2013-06-16 07:56:00,61.9,6.4,30.18,North,0,0.4,3.6,11,0.00,,,0.00,WUHU216HW,2013-06-16 14:56:00,
2013-06-16 08:01:00,62.6,5.4,30.18,NNE,23,2.9,3.4,10,0.00,,,0.00,WUHU216HW,2013-06-16 15:01:00,
2013-06-16 08:06:00,63.2,5.8,30.18,NNE,23,2.5,5.1,10,0.00,,,0.00,WUHU216HW,2013-06-16 15:06:00,
2013-06-16 08:11:00,63.7,6.1,30.18,NNW,338,0.4,5.1,10,0.00,,,0.00,WUHU216HW,2013-06-16 15:11:00,
2013-06-16 08:16:00,64.3,6.6,30.18,WSW,248,1.8,3.8,8,0.00,,,0.00,WUHU216HW,2013-06-16 15:16:00,
2013-06-16 08:21:00,64.8,6.9,30.19,North,0,1.6,3.8,8,0.00,,,0.00,WUHU216HW,2013-06-16 15:21:00,
2013-06-16 08:26:00,65.2,7.2,30.18,WNW,293,1.6,3.4,8,0.00,,,0.00,WUHU216HW,2013-06-16 15:26:00,
2013-06-16 08:31:00,65.9,7.8,30.19,WNW,293,3.4,4.0,8,0.00,,,0.00,WUHU216HW,2013-06-16 15:31:00,
2013-06-16 08:36:00,66.2,8.1,30.19,North,0,2.5,4.0,8,0.00,,,0.00,WUHU216HW,2013-06-16 15:36:00,
2013-06-16 08:41:00,66.6,8.4,30.19,West,270,4.9,4.9,7,0.00,,,0.00,WUHU216HW,2013-06-16 15:41:00,
2013-06-16 08:46:00,66.8,8.6,30.19,NNW,338,2.0,4.9,7,0.00,,,0.00,WUHU216HW,2013-06-16 15:46:00,
2013-06-16 08:51:00,67.1,8.8,30.19,North,0,3.6,4.9,7,0.00,,,0.00,WUHU216HW,2013-06-16 15:51:00,
2013-06-16 08:56:00,67.3,9.0,30.19,WNW,293,3.1,3.8,7,0.00,,,0.00,WUHU216HW,2013-06-16 15:56:00,
2013-06-16 09:01:00,68.0,9.5,30.19,West,270,3.1,3.6,7,0.00,,,0.00,WUHU216HW,2013-06-16 16:01:00,
2013-06-16 09:06:00,68.4,9.8,30.19,WNW,293,3.4,4.3,7,0.00,,,0.00,WUHU216HW,2013-06-16 16:06:00,
2013-06-16 09:11:00,68.8,10.1,30.19,WSW,248,2.5,4.9,7,0.00,,,0.00,WUHU216HW,2013-06-16 16:11:00,
2013-06-16 09:16:00,69.1,10.3,30.19,NNW,338,1.1,4.9,6,0.00,,,0.00,WUHU216HW,2013-06-16 16:16:00,
2013-06-16 09:21:00,69.3,10.5,30.19,SW,225,2.0,4.3,6,0.00,,,0.00,WUHU216HW,2013-06-16 16:21:00,
2013-06-16 09:26:00,69.7,10.7,30.19,NNE,23,1.6,4.3,7,0.00,,,0.00,WUHU216HW,2013-06-16 16:26:00,
2013-06-16 09:31:00,69.8,10.8,30.19,West,270,4.7,4.7,6,0.00,,,0.00,WUHU216HW,2013-06-16 16:31:00,
2013-06-16 09:36:00,70.0,11.0,30.19,NNE,23,4.0,4.7,6,0.00,,,0.00,WUHU216HW,2013-06-16 16:36:00,
2013-06-16 09:41:00,70.4,11.3,30.19,NE,45,2.0,4.7,6,0.00,,,0.00,WUHU216HW,2013-06-16 16:41:00,
2013-06-16 09:46:00,70.4,11.3,30.19,NW,315,0.9,4.3,6,0.00,,,0.00,WUHU216HW,2013-06-16 16:46:00,
2013-06-16 09:51:00,70.6,11.3,30.19,WNW,293,1.1,3.4,6,0.00,,,0.00,WUHU216HW,2013-06-16 16:51:00,
2013-06-16 09:56:00,70.7,11.5,30.19,North,0,3.6,6.5,6,0.00,,,0.00,WUHU216HW,2013-06-16 16:56:00,
2013-06-16 10:01:00,70.7,11.5,30.19,NNE,23,3.8,6.5,6,0.00,,,0.00,WUHU216HW,2013-06-16 17:01:00,
2013-06-16 10:06:00,70.7,11.5,30.19,East,90,4.5,6.0,5,0.00,,,0.00,WUHU216HW,2013-06-16 17:06:00,
2013-06-16 10:11:00,70.6,11.3,30.19,North,0,4.0,6.0,6,0.00,,,0.00,WUHU216HW,2013-06-16 17:11:00,
2013-06-16 10:16:00,70.6,11.3,30.19,ESE,113,3.1,8.5,6,0.00,,,0.00,WUHU216HW,2013-06-16 17:16:00,
2013-06-16 10:21:00,70.6,11.3,30.20,WNW,293,2.7,8.5,6,0.00,,,0.00,WUHU216HW,2013-06-16 17:21:00,
2013-06-16 10:26:00,70.9,11.7,30.19,SW,225,0.7,6.3,6,0.00,,,0.00,WUHU216HW,2013-06-16 17:26:00,
2013-06-16 10:31:00,71.1,11.8,30.19,NNE,23,3.8,6.9,5,0.00,,,0.00,WUHU216HW,2013-06-16 17:31:00,
2013-06-16 10:36:00,71.3,12.0,30.20,North,0,3.1,6.9,6,0.00,,,0.00,WUHU216HW,2013-06-16 17:36:00,
2013-06-16 10:41:00,71.3,12.0,30.20,WNW,293,4.5,5.8,5,0.00,,,0.00,WUHU216HW,2013-06-16 17:41:00,
2013-06-16 10:46:00,71.5,12.1,30.20,NNE,23,2.0,5.8,6,0.00,,,0.00,WUHU216HW,2013-06-16 17:46:00,
2013-06-16 10:51:00,71.6,12.2,30.20,WSW,248,0.9,5.4,6,0.00,,,0.00,WUHU216HW,2013-06-16 17:51:00,
2013-06-16 10:56:00,71.8,12.4,30.20,North,0,1.3,5.4,6,0.00,,,0.00,WUHU216HW,2013-06-16 17:56:00,
2013-06-16 11:01:00,72.0,12.5,30.20,North,0,1.8,5.8,5,0.00,,,0.00,WUHU216HW,2013-06-16 18:01:00,
2013-06-16 11:06:00,71.8,12.4,30.20,West,270,3.1,5.8,5,0.00,,,0.00,WUHU216HW,2013-06-16 18:06:00,
2013-06-16 11:11:00,72.0,12.5,30.20,NNW,338,2.2,6.3,5,0.00,,,0.00,WUHU216HW,2013-06-16 18:11:00,
2013-06-16 11:16:00,72.0,12.5,30.20,WSW,248,4.7,6.3,5,0.00,,,0.00,WUHU216HW,2013-06-16 18:16:00,
2013-06-16 11:21:00,72.4,12.8,30.21,WSW,248,5.4,5.8,6,0.00,,,0.00,WUHU216HW,2013-06-16 18:21:00,
2013-06-16 11:26:00,72.4,12.8,30.21,West,270,3.1,5.8,5,0.00,,,0.00,WUHU216HW,2013-06-16 18:26:00,
2013-06-16 11:31:00,72.7,13.2,30.21,North,0,2.5,5.4,5,0.00,,,0.00,WUHU216HW,2013-06-16 18:31:00,
2013-06-16 11:36:00,72.5,13.0,30.20,North,0,1.8,8.5,5,0.00,,,0.00,WUHU216HW,2013-06-16 18:36:00,
2013-06-16 11:41:00,72.9,13.2,30.21,WSW,248,2.5,8.5,5,0.00,,,0.00,WUHU216HW,2013-06-16 18:41:00,
2013-06-16 11:46:00,73.1,13.4,30.21,North,0,3.8,4.7,5,0.00,,,0.00,WUHU216HW,2013-06-16 18:46:00,
2013-06-16 11:51:00,73.1,13.4,30.20,WNW,293,1.3,6.0,5,0.00,,,0.00,WUHU216HW,2013-06-16 18:51:00,
2013-06-16 11:56:00,73.3,13.5,30.21,North,0,4.0,6.0,5,0.00,,,0.00,WUHU216HW,2013-06-16 18:56:00,
2013-06-16 12:01:00,73.3,13.5,30.21,North,0,6.3,6.3,3,0.00,,,0.00,WUHU216HW,2013-06-16 19:01:00,
2013-06-16 12:06:00,73.4,13.7,30.21,NNW,338,2.2,6.3,5,0.00,,,0.00,WUHU216HW,2013-06-16 19:06:00,
2013-06-16 12:11:00,73.8,14.0,30.21,North,0,4.0,6.3,3,0.00,,,0.00,WUHU216HW,2013-06-16 19:11:00,
2013-06-16 12:16:00,74.2,14.2,30.21,West,270,2.9,5.6,5,0.00,,,0.00,WUHU216HW,2013-06-16 19:16:00,
2013-06-16 12:21:00,74.3,14.3,30.21,WSW,248,1.8,5.4,5,0.00,,,0.00,WUHU216HW,2013-06-16 19:21:00,
2013-06-16 12:26:00,74.5,14.4,30.21,West,270,2.2,5.4,3,0.00,,,0.00,WUHU216HW,2013-06-16 19:26:00,
2013-06-16 12:31:00,74.5,14.4,30.21,NNW,338,1.1,5.4,5,0.00,,,0.00,WUHU216HW,2013-06-16 19:31:00,
2013-06-16 12:36:00,74.5,14.4,30.21,WNW,293,1.8,4.7,5,0.00,,,0.00,WUHU216HW,2013-06-16 19:36:00,
2013-06-16 12:41:00,74.7,14.6,30.21,SW,225,1.3,4.7,5,0.00,,,0.00,WUHU216HW,2013-06-16 19:41:00,
2013-06-16 12:46:00,74.9,14.7,30.21,SW,225,2.5,4.7,5,0.00,,,0.00,WUHU216HW,2013-06-16 19:46:00,
2013-06-16 12:51:00,75.2,14.9,30.21,West,270,3.6,4.7,5,0.00,,,0.00,WUHU216HW,2013-06-16 19:51:00,
2013-06-16 12:56:00,75.6,15.2,30.21,NNE,23,2.0,6.5,5,0.00,,,0.00,WUHU216HW,2013-06-16 19:56:00,
2013-06-16 13:01:00,75.4,15.1,30.21,North,0,2.5,6.5,6,0.00,,,0.00,WUHU216HW,2013-06-16 20:01:00,
2013-06-16 13:06:00,75.6,15.2,30.21,SE,135,4.3,4.9,8,0.00,,,0.00,WUHU216HW,2013-06-16 20:06:00,
2013-06-16 13:11:00,75.8,15.4,30.21,East,90,5.4,6.9,8,0.00,,,0.00,WUHU216HW,2013-06-16 20:11:00,
2013-06-16 13:16:00,75.6,15.2,30.21,SSE,158,1.1,6.9,8,0.00,,,0.00,WUHU216HW,2013-06-16 20:16:00,
2013-06-16 13:21:00,76.0,15.5,30.21,North,0,4.5,6.0,8,0.00,,,0.00,WUHU216HW,2013-06-16 20:21:00,
2013-06-16 13:26:00,76.0,15.5,30.20,ENE,68,1.8,5.6,10,0.00,,,0.00,WUHU216HW,2013-06-16 20:26:00,
2013-06-16 13:31:00,76.1,15.7,30.20,SE,135,2.9,7.6,10,0.00,,,0.00,WUHU216HW,2013-06-16 20:31:00,
2013-06-16 13:36:00,76.3,15.9,30.20,NE,45,2.5,7.6,8,0.00,,,0.00,WUHU216HW,2013-06-16 20:36:00,
2013-06-16 13:41:00,76.7,16.1,30.20,NNW,338,0.4,5.6,8,0.00,,,0.00,WUHU216HW,2013-06-16 20:41:00,
2013-06-16 13:46:00,77.0,16.4,30.20,ENE,68,5.6,7.2,8,0.00,,,0.00,WUHU216HW,2013-06-16 20:46:00,
2013-06-16 13:51:00,77.0,16.4,30.20,ESE,113,1.3,7.2,8,0.00,,,0.00,WUHU216HW,2013-06-16 20:51:00,
2013-06-16 13:56:00,77.4,16.7,30.20,ESE,113,6.9,9.8,10,0.00,,,0.00,WUHU216HW,2013-06-16 20:56:00,
2013-06-16 14:01:00,77.4,16.7,30.20,SE,135,2.5,9.8,8,0.00,,,0.00,WUHU216HW,2013-06-16 21:01:00,
2013-06-16 14:06:00,77.6,16.7,30.20,North,0,1.8,8.7,8,0.00,,,0.00,WUHU216HW,2013-06-16 21:06:00,
2013-06-16 14:11:00,77.8,16.9,30.20,North,0,1.6,7.8,9,0.00,,,0.00,WUHU216HW,2013-06-16 21:11:00,
2013-06-16 14:16:00,77.9,17.0,30.20,NE,45,2.2,7.8,8,0.00,,,0.00,WUHU216HW,2013-06-16 21:16:00,
2013-06-16 14:21:00,77.4,16.7,30.20,ESE,113,4.5,7.6,10,0.00,,,0.00,WUHU216HW,2013-06-16 21:21:00,
2013-06-16 14:26:00,77.4,16.7,30.20,SE,135,7.2,7.6,10,0.00,,,0.00,WUHU216HW,2013-06-16 21:26:00,
2013-06-16 14:31:00,77.2,16.5,30.20,East,90,4.0,8.9,10,0.00,,,0.00,WUHU216HW,2013-06-16 21:31:00,
2013-06-16 14:36:00,77.0,16.4,30.20,ESE,113,8.3,8.9,10,0.00,,,0.00,WUHU216HW,2013-06-16 21:36:00,
2013-06-16 14:41:00,76.9,16.2,30.20,NE,45,2.9,8.3,10,0.00,,,0.00,WUHU216HW,2013-06-16 21:41:00,
2013-06-16 14:46:00,77.0,16.4,30.20,NNE,23,2.5,8.3,10,0.00,,,0.00,WUHU216HW,2013-06-16 21:46:00,
2013-06-16 14:51:00,77.4,16.7,30.20,ENE,68,4.0,9.2,10,0.00,,,0.00,WUHU216HW,2013-06-16 21:51:00,
2013-06-16 14:56:00,77.4,16.7,30.19,NNE,23,1.6,9.2,10,0.00,,,0.00,WUHU216HW,2013-06-16 21:56:00,
2013-06-16 15:01:00,77.4,16.7,30.20,ESE,113,1.6,6.0,10,0.00,,,0.00,WUHU216HW,2013-06-16 22:01:00,
2013-06-16 15:06:00,77.8,16.9,30.20,NNW,338,2.5,8.5,10,0.00,,,0.00,WUHU216HW,2013-06-16 22:06:00,
2013-06-16 15:11:00,77.4,16.7,30.20,ENE,68,3.4,8.5,10,0.00,,,0.00,WUHU216HW,2013-06-16 22:11:00,
2013-06-16 15:16:00,77.0,16.4,30.20,North,0,6.0,7.2,10,0.00,,,0.00,WUHU216HW,2013-06-16 22:16:00,
2013-06-16 15:21:00,77.0,16.4,30.20,ENE,68,1.8,10.1,10,0.00,,,0.00,WUHU216HW,2013-06-16 22:21:00,
2013-06-16 15:26:00,77.0,16.4,30.20,NE,45,3.8,10.1,10,0.00,,,0.00,WUHU216HW,2013-06-16 22:26:00,
2013-06-16 15:31:00,76.7,16.1,30.20,ESE,113,5.8,11.6,10,0.00,,,0.00,WUHU216HW,2013-06-16 22:31:00,
2013-06-16 15:36:00,76.7,16.1,30.20,SE,135,1.1,11.6,10,0.00,,,0.00,WUHU216HW,2013-06-16 22:36:00,
2013-06-16 15:41:00,76.7,16.1,30.19,East,90,4.0,6.3,10,0.00,,,0.00,WUHU216HW,2013-06-16 22:41:00,
2013-06-16 15:46:00,76.5,15.9,30.19,ENE,68,4.3,10.5,10,0.00,,,0.00,WUHU216HW,2013-06-16 22:46:00,
2013-06-16 15:51:00,76.7,16.1,30.20,NNE,23,5.1,10.5,10,0.00,,,0.00,WUHU216HW,2013-06-16 22:51:00,
2013-06-16 15:56:00,76.9,16.2,30.20,NNE,23,2.2,8.9,10,0.00,,,0.00,WUHU216HW,2013-06-16 22:56:00,
2013-06-16 16:01:00,77.0,16.4,30.19,East,90,1.3,8.1,10,0.00,,,0.00,WUHU216HW,2013-06-16 23:01:00,
2013-06-16 16:06:00,77.0,16.4,30.20,NNW,338,1.8,5.6,10,0.00,,,0.00,WUHU216HW,2013-06-16 23:06:00,
2013-06-16 16:11:00,76.7,16.1,30.19,ESE,113,7.2,7.8,10,0.00,,,0.00,WUHU216HW,2013-06-16 23:11:00,
2013-06-16 16:16:00,76.1,15.7,30.19,North,0,0.4,10.5,10,0.00,,,0.00,WUHU216HW,2013-06-16 23:16:00,
2013-06-16 16:21:00,76.7,17.7,30.19,ESE,113,3.4,10.5,11,0.00,,,0.00,WUHU216HW,2013-06-16 23:21:00,
2013-06-16 16:26:00,76.9,17.9,30.20,ENE,68,4.0,6.9,11,0.00,,,0.00,WUHU216HW,2013-06-16 23:26:00,
2013-06-16 16:31:00,76.9,16.2,30.20,NNE,23,1.3,6.9,10,0.00,,,0.00,WUHU216HW,2013-06-16 23:31:00,
2013-06-16 16:36:00,76.7,17.7,30.20,SE,135,3.6,7.6,11,0.00,,,0.00,WUHU216HW,2013-06-16 23:36:00,
2013-06-16 16:41:00,77.0,18.0,30.19,NNE,23,4.3,7.6,11,0.00,,,0.00,WUHU216HW,2013-06-16 23:41:00,
2013-06-16 16:46:00,77.0,18.0,30.19,East,90,4.0,5.6,11,0.00,,,0.00,WUHU216HW,2013-06-16 23:46:00,
2013-06-16 16:51:00,76.9,17.9,30.18,SSE,158,2.7,5.6,11,0.00,,,0.00,WUHU216HW,2013-06-16 23:51:00,
2013-06-16 16:56:00,76.9,16.2,30.19,WNW,293,2.5,8.9,10,0.00,,,0.00,WUHU216HW,2013-06-16 23:56:00,
2013-06-16 17:01:00,76.3,15.9,30.19,WSW,248,1.6,8.9,10,0.00,,,0.00,WUHU216HW,2013-06-17 00:01:00,
2013-06-16 17:06:00,76.1,15.7,30.19,NW,315,1.1,4.7,10,0.00,,,0.00,WUHU216HW,2013-06-17 00:06:00,
2013-06-16 17:11:00,75.8,15.4,30.19,SW,225,1.1,4.0,10,0.00,,,0.00,WUHU216HW,2013-06-17 00:11:00,
2013-06-16 17:16:00,75.8,15.4,30.19,WNW,293,1.8,4.0,10,0.00,,,0.00,WUHU216HW,2013-06-17 00:16:00,
2013-06-16 17:21:00,75.6,15.2,30.19,WNW,293,4.7,4.7,10,0.00,,,0.00,WUHU216HW,2013-06-17 00:21:00,
2013-06-16 17:26:00,75.6,15.2,30.19,WNW,293,2.0,5.4,10,0.00,,,0.00,WUHU216HW,2013-06-17 00:26:00,
2013-06-16 17:31:00,75.6,15.2,30.19,WNW,293,1.8,5.4,10,0.00,,,0.00,WUHU216HW,2013-06-17 00:31:00,
2013-06-16 17:36:00,75.6,15.2,30.19,WNW,293,1.6,4.0,10,0.00,,,0.00,WUHU216HW,2013-06-17 00:36:00,
2013-06-16 17:41:00,75.6,15.2,30.19,WSW,248,2.7,4.0,10,0.00,,,0.00,WUHU216HW,2013-06-17 00:41:00,
2013-06-16 17:46:00,75.6,15.2,30.19,WSW,248,1.3,4.0,10,0.00,,,0.00,WUHU216HW,2013-06-17 00:46:00,
2013-06-16 17:51:00,75.4,15.1,30.19,North,0,3.6,3.6,10,0.00,,,0.00,WUHU216HW,2013-06-17 00:51:00,
2013-06-16 17:56:00,75.1,14.9,30.19,North,0,0.4,4.7,10,0.00,,,0.00,WUHU216HW,2013-06-17 00:56:00,
2013-06-16 18:01:00,74.7,14.6,30.19,WSW,248,1.8,4.7,10,0.00,,,0.00,WUHU216HW,2013-06-17 01:01:00,
2013-06-16 18:06:00,74.5,14.4,30.19,NW,315,0.7,4.0,10,0.00,,,0.00,WUHU216HW,2013-06-17 01:06:00,
2013-06-16 18:11:00,74.2,14.2,30.19,North,0,3.1,4.5,10,0.00,,,0.00,WUHU216HW,2013-06-17 01:11:00,
2013-06-16 18:16:00,74.0,14.0,30.19,WNW,293,3.4,4.5,10,0.00,,,0.00,WUHU216HW,2013-06-17 01:16:00,
2013-06-16 18:21:00,73.8,14.0,30.19,NW,315,0.9,4.3,10,0.00,,,0.00,WUHU216HW,2013-06-17 01:21:00,
2013-06-16 18:26:00,73.3,13.5,30.19,West,270,1.8,4.3,10,0.00,,,0.00,WUHU216HW,2013-06-17 01:26:00,
2013-06-16 18:31:00,73.1,13.4,30.19,NW,315,2.2,4.3,10,0.00,,,0.00,WUHU216HW,2013-06-17 01:31:00,
2013-06-16 18:36:00,73.1,13.4,30.19,WNW,293,4.0,4.0,10,0.00,,,0.00,WUHU216HW,2013-06-17 01:36:00,
2013-06-16 18:41:00,72.9,13.2,30.19,WSW,248,2.2,4.0,10,0.00,,,0.00,WUHU216HW,2013-06-17 01:41:00,
2013-06-16 18:46:00,72.7,13.2,30.19,WNW,293,3.8,4.9,10,0.00,,,0.00,WUHU216HW,2013-06-17 01:46:00,
2013-06-16 18:51:00,72.4,12.8,30.19,NW,315,1.3,4.9,10,0.00,,,0.00,WUHU216HW,2013-06-17 01:51:00,
2013-06-16 18:56:00,71.8,12.4,30.19,West,270,1.8,3.8,10,0.00,,,0.00,WUHU216HW,2013-06-17 01:56:00,
2013-06-16 19:01:00,71.5,13.7,30.19,NW,315,2.9,2.9,11,0.00,,,0.00,WUHU216HW,2013-06-17 02:01:00,
2013-06-16 19:06:00,71.1,13.4,30.19,WNW,293,1.3,3.4,11,0.00,,,0.00,WUHU216HW,2013-06-17 02:06:00,
2013-06-16 19:11:00,70.9,13.3,30.19,WSW,248,1.8,3.4,11,0.00,,,0.00,WUHU216HW,2013-06-17 02:11:00,
2013-06-16 19:16:00,70.7,13.1,30.19,West,270,1.6,2.9,11,0.00,,,0.00,WUHU216HW,2013-06-17 02:16:00,
2013-06-16 19:21:00,70.4,14.5,30.19,WSW,248,1.3,2.9,12,0.00,,,0.00,WUHU216HW,2013-06-17 02:21:00,
2013-06-16 19:26:00,70.2,14.3,30.20,West,270,1.8,1.8,12,0.00,,,0.00,WUHU216HW,2013-06-17 02:26:00,
2013-06-16 19:31:00,69.8,14.0,30.20,NW,315,1.1,1.8,12,0.00,,,0.00,WUHU216HW,2013-06-17 02:31:00,
2013-06-16 19:36:00,69.5,13.8,30.20,West,270,0.4,1.8,12,0.00,,,0.00,WUHU216HW,2013-06-17 02:36:00,
2013-06-16 19:41:00,69.1,15.1,30.20,WSW,248,0.0,1.8,13,0.00,,,0.00,WUHU216HW,2013-06-17 02:41:00,
2013-06-16 19:46:00,68.8,14.9,30.20,West,270,0.0,1.1,13,0.00,,,0.00,WUHU216HW,2013-06-17 02:46:00,
2013-06-16 19:51:00,68.4,14.6,30.20,WNW,293,0.4,1.1,13,0.00,,,0.00,WUHU216HW,2013-06-17 02:51:00,
2013-06-16 19:56:00,67.9,14.2,30.20,WNW,293,0.7,1.1,13,0.00,,,0.00,WUHU216HW,2013-06-17 02:56:00,
2013-06-16 20:01:00,67.3,13.8,30.20,NNE,23,0.7,1.1,13,0.00,,,0.00,WUHU216HW,2013-06-17 03:01:00,
2013-06-16 20:06:00,66.8,13.3,30.20,West,270,1.3,1.3,13,0.00,,,0.00,WUHU216HW,2013-06-17 03:06:00,
2013-06-16 20:11:00,66.2,14.4,30.20,WSW,248,1.6,1.6,14,0.00,,,0.00,WUHU216HW,2013-06-17 03:11:00,
2013-06-16 20:16:00,65.5,15.5,30.20,WNW,293,0.7,1.6,15,0.00,,,0.00,WUHU216HW,2013-06-17 03:16:00,
2013-06-16 20:21:00,64.8,14.9,30.20,West,270,1.6,1.6,15,0.00,,,0.00,WUHU216HW,2013-06-17 03:21:00,
2013-06-16 20:26:00,64.3,14.4,30.20,West,270,0.4,1.8,15,0.00,,,0.00,WUHU216HW,2013-06-17 03:26:00,
2013-06-16 20:31:00,63.7,14.0,30.20,West,270,1.1,1.8,15,0.00,,,0.00,WUHU216HW,2013-06-17 03:31:00,
2013-06-16 20:36:00,63.0,13.5,30.20,WSW,248,1.1,1.6,15,0.00,,,0.00,WUHU216HW,2013-06-17 03:36:00,
2013-06-16 20:41:00,62.6,13.2,30.20,WSW,248,1.8,1.8,15,0.00,,,0.00,WUHU216HW,2013-06-17 03:41:00,
2013-06-16 20:46:00,61.9,12.7,30.20,West,270,0.9,2.2,15,0.00,,,0.00,WUHU216HW,2013-06-17 03:46:00,
2013-06-16 20:51:00,61.2,12.1,30.20,West,270,1.8,2.2,15,0.00,,,0.00,WUHU216HW,2013-06-17 03:51:00,
2013-06-16 20:56:00,60.8,11.8,30.20,West,270,1.8,2.2,15,0.00,,,0.00,WUHU216HW,2013-06-17 03:56:00,
2013-06-16 21:01:00,60.3,11.4,30.20,West,270,2.0,2.2,15,0.00,,,0.00,WUHU216HW,2013-06-17 04:01:00,
2013-06-16 21:06:00,59.9,11.1,30.20,WSW,248,2.7,2.7,15,0.00,,,0.00,WUHU216HW,2013-06-17 04:06:00,
2013-06-16 21:11:00,59.6,10.7,30.20,WSW,248,2.0,2.7,15,0.00,,,0.00,WUHU216HW,2013-06-17 04:11:00,
2013-06-16 21:16:00,59.2,12.0,30.20,West,270,2.2,2.7,16,0.00,,,0.00,WUHU216HW,2013-06-17 04:16:00,
2013-06-16 21:21:00,59.0,11.8,30.20,West,270,2.0,2.7,16,0.00,,,0.00,WUHU216HW,2013-06-17 04:21:00,
2013-06-16 21:26:00,58.7,11.5,30.20,WNW,293,2.0,2.9,16,0.00,,,0.00,WUHU216HW,2013-06-17 04:26:00,
2013-06-16 21:31:00,58.7,11.5,30.20,WNW,293,0.9,3.1,16,0.00,,,0.00,WUHU216HW,2013-06-17 04:31:00,
2013-06-16 21:36:00,58.3,11.3,30.20,West,270,2.0,3.1,16,0.00,,,0.00,WUHU216HW,2013-06-17 04:36:00,
2013-06-16 21:41:00,58.1,12.6,30.20,WNW,293,0.4,3.1,17,0.00,,,0.00,WUHU216HW,2013-06-17 04:41:00,
2013-06-16 21:46:00,58.0,12.5,30.21,NNW,338,0.7,2.0,17,0.00,,,0.00,WUHU216HW,2013-06-17 04:46:00,
2013-06-16 21:51:00,57.6,12.3,30.21,NNW,338,0.9,0.9,17,0.00,,,0.00,WUHU216HW,2013-06-17 04:51:00,
2013-06-16 21:56:00,57.4,12.1,30.21,WNW,293,1.1,1.3,17,0.00,,,0.00,WUHU216HW,2013-06-17 04:56:00,
2013-06-16 22:01:00,57.1,11.8,30.21,WNW,293,1.3,1.8,17,0.00,,,0.00,WUHU216HW,2013-06-17 05:01:00,
2013-06-16 22:06:00,56.9,11.6,30.21,WNW,293,1.6,2.0,17,0.00,,,0.00,WUHU216HW,2013-06-17 05:06:00,
2013-06-16 22:11:00,56.7,13.1,30.21,WNW,293,2.0,2.2,18,0.00,,,0.00,WUHU216HW,2013-06-17 05:11:00,
2013-06-16 22:16:00,56.5,12.9,30.21,West,270,0.7,2.2,18,0.00,,,0.00,WUHU216HW,2013-06-17 05:16:00,
2013-06-16 22:21:00,56.5,12.9,30.21,WNW,293,0.9,2.0,18,0.00,,,0.00,WUHU216HW,2013-06-17 05:21:00,
2013-06-16 22:26:00,56.3,12.8,30.21,WNW,293,0.9,1.3,18,0.00,,,0.00,WUHU216HW,2013-06-17 05:26:00,
2013-06-16 22:31:00,56.2,14.1,30.21,WNW,293,0.7,1.8,19,0.00,,,0.00,WUHU216HW,2013-06-17 05:31:00,
2013-06-16 22:36:00,55.8,13.9,30.21,West,270,1.1,1.8,19,0.00,,,0.00,WUHU216HW,2013-06-17 05:36:00,
2013-06-16 22:41:00,55.4,15.1,30.21,WNW,293,1.1,1.3,20,0.00,,,0.00,WUHU216HW,2013-06-17 05:41:00,
2013-06-16 22:46:00,55.1,14.8,30.21,WNW,293,0.7,1.3,20,0.00,,,0.00,WUHU216HW,2013-06-17 05:46:00,
2013-06-16 22:51:00,54.7,15.4,30.21,North,0,1.1,1.1,21,0.00,,,0.00,WUHU216HW,2013-06-17 05:51:00,
2013-06-16 22:56:00,54.4,15.1,30.21,NW,315,0.9,2.0,21,0.00,,,0.00,WUHU216HW,2013-06-17 05:56:00,
2013-06-16 23:01:00,54.4,15.1,30.21,West,270,1.1,2.0,21,0.00,,,0.00,WUHU216HW,2013-06-17 06:01:00,
2013-06-16 23:06:00,54.0,14.8,30.20,WNW,293,1.1,1.6,21,0.00,,,0.00,WUHU216HW,2013-06-17 06:06:00,
2013-06-16 23:11:00,53.6,14.5,30.20,West,270,1.1,1.6,21,0.00,,,0.00,WUHU216HW,2013-06-17 06:11:00,
2013-06-16 23:16:00,53.1,14.9,30.20,WSW,248,1.8,2.0,22,0.00,,,0.00,WUHU216HW,2013-06-17 06:16:00,
2013-06-16 23:21:00,52.7,14.7,30.20,WSW,248,2.0,2.2,22,0.00,,,0.00,WUHU216HW,2013-06-17 06:21:00,
2013-06-16 23:26:00,52.4,15.3,30.20,WSW,248,1.3,2.5,23,0.00,,,0.00,WUHU216HW,2013-06-17 06:26:00,
2013-06-16 23:31:00,52.2,15.2,30.20,West,270,2.5,2.5,23,0.00,,,0.00,WUHU216HW,2013-06-17 06:31:00,
2013-06-16 23:36:00,52.2,15.2,30.20,WSW,248,1.6,2.7,23,0.00,,,0.00,WUHU216HW,2013-06-17 06:36:00,
2013-06-16 23:41:00,51.8,14.9,30.20,WNW,293,0.4,2.7,23,0.00,,,0.00,WUHU216HW,2013-06-17 06:41:00,
2013-06-16 23:46:00,51.5,14.6,30.20,NW,315,0.0,1.8,23,0.00,,,0.00,WUHU216HW,2013-06-17 06:46:00,
2013-06-16 23:51:00,51.3,14.4,30.20,West,270,1.3,1.3,23,0.00,,,0.00,WUHU216HW,2013-06-17 06:51:00,
2013-06-16 23:56:00,51.1,14.3,30.20,WNW,293,0.2,1.3,23,0.00,,,0.00,WUHU216HW,2013-06-17 06:56:00,